CZ-6A DEB, 56240

Orbit data source: Space-Track

CZ-6A DEB, 56240 is space debris in SSO originally from a launch on Fri, 11 Nov 2022 UTC launched from the Taiyaun Space Center, China (TSC). Debris objects in space refer to the collection of defunct objects orbiting the Earth. Examples of debris include non-operational satellites, rocket bodies, and fragments generated from explosions, collisions, or faulty payload assembly.

Loading next visibility...
Identifier
56240, 2022-151ABG
Orbit
SSO
Country
Flag of CNCN / PRC
Related business
Manufacturer
SAST
Mission
Spacecraft
Bus & Motor
Unknown
Mass
Unknown
Launch date (UTC)
2022-11-11 (4 years ago)
Launch vehicle
Unknown
Launch site
Taiyaun Space Center, China (TSC)
Object type
Payload
Rocket body
Debris
Shape & HBR
Unknown shape, 0.1 m
Radar Cross Section
Small (<0.1 m²)

Expand to show TLE details & history
Last TLE update: 2 days ago

TLE from 2 days ago
0 CZ-6A DEB
1 56240U 22151ABG 26235.30760964  .00014347  00000-0  15769-2 0  9990
2 56240  98.8139 352.9483 0062209  38.8134 321.7522 14.86334265189391
Epoch: 2026-08-23T07:22Z
TLE epoch observation values (Epoch: 2026-08-23T07:22:57.472Z)
Latitude
-0.00007°
Longitude
-89.39669°
Altitude
578.362 km
Speed
7.59 km/s
True Right ascension
23h 31m 47s
True Declination
0° 00' 00"
Sunlit
Object was in full shadow at epoch
Visualization orbit readout
Latitude
Unknown
Longitude
Unknown
Altitude
Unknown
Speed
Unknown
Apparent Right ascension
Unknown
Apparent Declination
Unknown
Sunlit
N/A
Visualization observer readout
Local Sidereal Time
15:05:44
Azimuth
Unknown
Elevation
Unknown
Doppler factor
Unknown
Orbital elements
Apogee altitude
649.927 km
Perigee altitude
563.026 km
Semi-major axis
6,984.614 km
Eccentricity
0.00622
Inclination
98.8139°
RAAN
352.9483°
Arg. of periapsis
38.8134°
True anomaly
321.30819°
Mean anomaly
321.7522°
Eccentric anomaly
321.53046°
Mean motion
3.71817 °/min
Orbital period
96.82 mins
BSTAR
0.0015769
Loading maneuver chart data...
Computing Atmospheric mass density...
Loading historical data...
Loading historical data...
Loading historical data...
Loading historical data...
Loading historical data...
Loading historical data...
Loading historical data...

Documentation

Showing up to 5 results
|